TimeCDT,TemperatureF,Dew PointF,Humidity,Sea Level PressureIn,VisibilityMPH,Wind Direction,Wind SpeedMPH,Gust SpeedMPH,PrecipitationIn,Events,Conditions,WindDirDegrees,DateUTC
12:55 AM,68.0,64.9,90,30.01,5.0,South,8.1,-,N/A,,Overcast,190,2014-03-23 05:55:00
1:55 AM,68.0,64.9,90,30.01,6.0,South,5.8,-,N/A,,Overcast,190,2014-03-23 06:55:00
2:55 AM,69.1,64.9,87,29.99,9.0,SSW,9.2,-,N/A,,Overcast,200,2014-03-23 07:55:00
3:12 AM,69.8,64.4,83,29.98,10.0,South,8.1,-,N/A,,Overcast,190,2014-03-23 08:12:00
3:29 AM,68.0,64.4,88,29.97,9.0,SSW,10.4,-,N/A,,Overcast,200,2014-03-23 08:29:00
3:55 AM,68.0,64.9,90,29.96,4.0,South,9.2,-,N/A,,Overcast,180,2014-03-23 08:55:00
4:55 AM,69.1,66.0,90,29.99,8.0,West,3.5,-,N/A,,Overcast,260,2014-03-23 09:55:00
5:28 AM,69.8,66.2,88,30.00,1.8,Calm,Calm,-,N/A,,Overcast,0,2014-03-23 10:28:00
5:55 AM,69.1,66.0,90,29.99,1.5,Calm,Calm,-,N/A,,Overcast,0,2014-03-23 10:55:00
6:12 AM,68.0,66.2,94,30.00,0.8,Calm,Calm,-,N/A,,Overcast,0,2014-03-23 11:12:00
6:38 AM,68.0,66.2,94,29.99,1.5,WSW,3.5,-,N/A,,Overcast,240,2014-03-23 11:38:00
6:50 AM,69.8,66.2,88,30.00,2.0,WSW,3.5,-,N/A,,Overcast,250,2014-03-23 11:50:00
6:55 AM,69.1,66.0,90,30.01,2.0,WSW,4.6,-,N/A,,Overcast,250,2014-03-23 11:55:00
7:07 AM,69.8,66.2,88,30.02,3.0,WSW,4.6,-,N/A,,Overcast,240,2014-03-23 12:07:00
7:18 AM,69.8,66.2,88,30.02,4.0,West,3.5,-,N/A,,Overcast,260,2014-03-23 12:18:00
7:55 AM,69.1,66.0,90,30.04,4.0,WSW,6.9,-,N/A,,Overcast,250,2014-03-23 12:55:00
8:55 AM,71.1,66.9,87,30.06,9.0,West,3.5,-,N/A,,Overcast,270,2014-03-23 13:55:00
9:04 AM,71.6,66.2,83,30.06,10.0,Variable,5.8,-,N/A,,Overcast,0,2014-03-23 14:04:00
9:55 AM,72.0,66.0,81,30.06,9.0,NW,8.1,-,N/A,,Overcast,310,2014-03-23 14:55:00
10:55 AM,70.0,66.0,87,30.08,2.5,North,5.8,-,N/A,Rain,Light Rain,350,2014-03-23 15:55:00
11:14 AM,71.6,66.2,83,30.08,5.0,North,5.8,-,N/A,,Overcast,360,2014-03-23 16:14:00
11:38 AM,69.8,64.4,83,30.08,6.0,North,6.9,-,N/A,,Haze,10,2014-03-23 16:38:00
11:55 AM,72.0,64.0,76,30.08,10.0,North,3.5,-,N/A,,Overcast,10,2014-03-23 16:55:00
12:55 PM,73.9,62.1,66,30.07,10.0,Variable,3.5,-,N/A,,Overcast,0,2014-03-23 17:55:00
1:55 PM,73.0,61.0,66,30.05,10.0,North,10.4,17.3,N/A,,Overcast,10,2014-03-23 18:55:00
2:55 PM,71.1,59.0,66,30.03,10.0,North,12.7,21.9,N/A,,Mostly Cloudy,350,2014-03-23 19:55:00
3:55 PM,70.0,57.0,63,30.04,10.0,North,9.2,17.3,N/A,,Mostly Cloudy,360,2014-03-23 20:55:00
4:55 PM,69.1,55.9,63,30.05,10.0,NNW,6.9,-,N/A,,Mostly Cloudy,340,2014-03-23 21:55:00
5:55 PM,66.9,54.0,63,30.06,10.0,North,9.2,-,N/A,,Mostly Cloudy,360,2014-03-23 22:55:00
6:55 PM,62.1,52.0,70,30.10,10.0,North,12.7,21.9,N/A,,Clear,10,2014-03-23 23:55:00
7:55 PM,62.1,51.1,67,30.10,10.0,North,9.2,20.7,N/A,,Clear,10,2014-03-24 00:55:00
8:55 PM,62.1,50.0,65,30.12,10.0,NNE,9.2,-,N/A,,Overcast,20,2014-03-24 01:55:00
9:55 PM,60.1,51.1,72,30.13,10.0,NNE,9.2,-,N/A,Rain,Light Rain,30,2014-03-24 02:55:00
10:55 PM,57.0,51.1,81,30.15,6.0,NE,6.9,-,N/A,Rain,Light Rain,40,2014-03-24 03:55:00
11:55 PM,55.9,50.0,80,30.15,7.0,NNE,6.9,-,N/A,Rain,Light Rain,30,2014-03-24 04:55:00